[[{"header":{"parameterUnit":"m.s-1","parameterCategory":2,"la1":30.2991,"la2":30.254,"lo1":-89.0895,"lo2":-89.0444,"dy":0.0017,"dx":0.0017,"nx":28,"ny":28,"refTime":"2024-04-17T03:00:00:Z","depth":"0","parameterNumber":2,"parameterNumberName":"U-component_of_CURRENTS"},"data":[0,0,0,0,0,0,0,0,0,0,0,0,0,0,0,0,0,0,0,0,0,0,0,0,0,0,0,0,0,0,0,0,0,0,0,0,0,0,0,0,0,0,0,0,0,0,0,0,0,0,0,0,0,0,0,0,0,0,0.1078,0.1078,0,0.107,0.107,0.107,0.1069,0.1069,0.1069,0.1069,0.1056,0.1056,0.1055,0,0,0,0,0,0,0,0,0,0,0,0,0,0.1067,0.1067,0.1078,0.1078,0.1078,0.107,0.107,0.107,0.1069,0.1069,0.1069,0.1069,0.1056,0.1056,0.1055,0,0,0,0,0,0,0,0,0,0,0,0,0,0.1065,0.1067,0.1078,0.1077,0.1078,0.1071,0.107,0.107,0.1068,0.1069,0.1069,0.1069,0.1057,0.1056,0.1055,0.1043,0,0,0.1052,0.1052,0,0,0,0,0,0,0,0,0.1065,0.1065,0.1077,0.1078,0.1078,0.1072,0.1062,0.1061,0.1068,0.107,0.1069,0.107,0.1062,0.1061,0.1056,0.1043,0.1042,0.1052,0.1052,0.1051,0.1051,0,0,0,0,0,0,0,0.1066,0.1066,0.1073,0.1078,0.1078,0.107,0.107,0.1061,0.1063,0.107,0.107,0.1072,0.1062,0.1057,0.1056,0.1042,0.1052,0.1052,0.1051,0.1051,0.1036,0.1036,0,0,0,0,0,0,0.1071,0.1066,0.1073,0.1073,0.1074,0.107,0.107,0.1072,0.1063,0.1062,0.1072,0.1072,0.1058,0.1057,0.1055,0.1071,0.1051,0.1051,0.105,0.1036,0.1036,0.1036,0,0,0,0,0,0,0.1071,0.1072,0.1074,0.1071,0.1071,0.107,0.1072,0.1072,0.1071,0.1065,0.1064,0.1072,0.1058,0.1057,0.105,0.1069,0.105,0.105,0.1036,0.1036,0.1036,0.1082,0,0,0,0,0,0,0.107,0.1072,0.1073,0.1071,0.1071,0.1071,0.1072,0.1072,0.1072,0.1073,0.1065,0.1064,0.1058,0.1051,0.1049,0.1067,0.1049,0.1036,0.1036,0.1036,0.108,0.1084,0.1086,0,0,0,0,0,0.107,0.1068,0.1073,0.1074,0.1074,0.1071,0.107,0.107,0.1072,0.107,0.1066,0.1064,0.1052,0.1051,0.1048,0.1067,0.1036,0.1036,0.1036,0.1079,0.1083,0.1086,0,0,0,0,0,0,0.1059,0.1068,0.1073,0.1073,0.1075,0.1072,0.107,0.1071,0.1066,0.1068,0.1061,0.106,0.1063,0.1052,0.1051,0.1061,0.1045,0.1044,0.1078,0.1082,0.1085,0.1159,0.1048,0,0,0,0,0,0.1059,0.1063,0.1069,0.1069,0.1072,0.1072,0.1071,0.1073,0.107,0.1068,0.1063,0.1059,0.106,0.1061,0.1054,0.1056,0.1106,0.1066,0.1069,0.1072,0.113,0.1205,0.1223,0.1037,0.1037,0.1037,0,0,0.1054,0.106,0.1062,0.1067,0.1068,0.108,0.1072,0.1073,0.1092,0.1067,0.1082,0.1067,0.1062,0.1068,0.1069,0.1063,0.1146,0.1072,0.1075,0.1133,0.1208,0.1227,0.1243,0.1037,0.1037,0.1037,0,0,0.105,0.1053,0.1059,0.1066,0.1074,0.108,0.1083,0.1084,0.1095,0.1098,0.1095,0.1104,0.1081,0.1104,0.1108,0.1125,0.1157,0.1101,0.1184,0.1255,0.1273,0.1289,0.1363,0.1386,0.1106,0.1106,0.1106,0,0.1044,0.1068,0.1058,0.107,0.1097,0.1084,0.1116,0.1113,0.1113,0.1152,0.1108,0.114,0.1115,0.1177,0.1177,0.114,0.1186,0.1169,0.1265,0.1282,0.1298,0.137,0.1395,0.1108,0.1108,0.1108,0.1107,0,0.1051,0.1077,0.1081,0.1106,0.1121,0.1144,0.1157,0.1173,0.1179,0.1198,0.1248,0.1219,0.1257,0.1228,0.1206,0.1304,0.1302,0.1259,0.1266,0.132,0.1391,0.1416,0.1111,0.1111,0.111,0.1109,0,0,0.1051,0.1085,0.1092,0.1142,0.1161,0.1187,0.122,0.1284,0.1341,0.1326,0.1414,0.1399,0.1405,0.1413,0.1384,0.1436,0.1553,0.1401,0.1404,0.1497,0.1731,0.1718,0.1743,0.1527,0.1531,0.1535,0.1732,0,0.1082,0.1139,0.114,0.1218,0.1275,0.1289,0.1328,0.1377,0.1406,0.147,0.1484,0.1524,0.1467,0.1479,0.1532,0.1542,0.1624,0.1506,0.1649,0.1655,0.1654,0.1773,0.1725,0.1896,0.1756,0.176,0.1763,0,0.1123,0.1169,0.1249,0.1346,0.1367,0.1389,0.1508,0.1536,0.161,0.1634,0.1697,0.1692,0.1773,0.169,0.182,0.1747,0.1776,0.178,0.1786,0.1793,0.1689,0.182,0.1946,0.1862,0.1801,0.1798,0.1796,0,0.1208,0.1269,0.1354,0.138,0.1449,0.1495,0.1529,0.16,0.1644,0.1744,0.178,0.1877,0.1901,0.1973,0.1972,0.1915,0.211,0.2019,0.2056,0.2054,0.2058,0.2049,0.2148,0.2166,0.2166,0.2165,0.2165,0,0.1294,0.1368,0.1394,0.1449,0.1531,0.1566,0.165,0.1695,0.1763,0.1818,0.1867,0.1919,0.1973,0.2055,0.207,0.2159,0.22,0.2142,0.2131,0.2066,0.2055,0.2015,0.1963,0.2172,0.2171,0.2169,0.2168,0,0.1388,0.1411,0.1497,0.156,0.1574,0.1628,0.1669,0.1722,0.1792,0.1865,0.1894,0.1986,0.2092,0.2159,0.2269,0.2272,0.2298,0.2372,0.2296,0.2273,0.2201,0.2153,0.2226,0.216,0.2471,0.2472,0.2473,0,0.1448,0.1501,0.1546,0.1554,0.1571,0.163,0.1652,0.1723,0.1761,0.1884,0.1915,0.2051,0.212,0.231,0.2373,0.2486,0.2358,0.2485,0.2368,0.2262,0.2201,0.2072,0.2,0.2386,0.2387,0.2387,0.2387,0,0.1528,0.152,0.1551,0.1568,0.1584,0.1612,0.165,0.1683,0.1761,0.1836,0.1924,0.2002,0.2194,0.229,0.2448,0.2488,0.2365,0.2491,0.2414,0.221,0.2051,0.1956,0.2181,0.2389,0.2389,0.2389,0.2388,0.2388,0.1528,0.1535,0.1531,0.1544,0.1555,0.1561,0.1571,0.162,0.1679,0.1763,0.1874,0.1983,0.2173,0.2386,0.2418,0.2443,0.2386,0.2375,0.2351,0.2248,0.2118,0.2356,0.251,0.251,0.2511,0.2511,0.2512,0,0.1497,0.1494,0.1502,0.1491,0.1479,0.151,0.1535,0.1536,0.1575,0.1696,0.1785,0.1989,0.212,0.2246,0.2375,0.2321,0.2192,0.2245,0.2053,0.2005,0.2271,0.2196,0.2247,0.2248,0.2248,0.2248,0.2248,0.2248,0.1467,0.1443,0.1442,0.1398,0.1398,0.1368,0.137,0.1395,0.1462,0.157,0.169,0.1821,0.2053,0.2217,0.2222,0.2177,0.1983,0.1925,0.1872,0.2047,0.2055,0.2063,0.1979,0.1985,0.1985,0.1525,0.1521,0.1519]},{"header":{"parameterUnit":"m.s-1","parameterCategory":2,"la1":30.2991,"la2":30.254,"lo1":-89.0895,"lo2":-89.0444,"dy":0.0017,"dx":0.0017,"nx":28,"ny":28,"refTime":"2024-04-17T03:00:00:Z","depth":"0","parameterNumber":3,"parameterNumberName":"V-component_of_CURRENTS"},"data":[0,0,0,0,0,0,0,0,0,0,0,0,0,0,0,0,0,0,0,0,0,0,0,0,0,0,0,0,0,0,0,0,0,0,0,0,0,0,0,0,0,0,0,0,0,0,0,0,0,0,0,0,0,0,0,0,0,0,-0.0037,-0.0037,0,-0.007,-0.0071,-0.0071,-0.0084,-0.0084,-0.0084,-0.0084,-0.0105,-0.0106,-0.0106,0,0,0,0,0,0,0,0,0,0,0,0,0,-0.0005,-0.0005,-0.0037,-0.0037,-0.0037,-0.007,-0.0071,-0.0071,-0.0084,-0.0084,-0.0084,-0.0084,-0.0105,-0.0106,-0.0106,0,0,0,0,0,0,0,0,0,0,0,0,0,-0.0026,-0.0005,-0.0037,-0.0048,-0.0049,-0.007,-0.0071,-0.0071,-0.0084,-0.0084,-0.0084,-0.0084,-0.0105,-0.0106,-0.0106,-0.0115,0,0,-0.0109,-0.011,0,0,0,0,0,0,0,0,-0.0025,-0.0027,-0.0046,-0.0047,-0.0049,-0.0073,-0.0067,-0.0085,-0.0084,-0.0071,-0.0084,-0.0084,-0.0093,-0.0095,-0.0102,-0.0116,-0.0117,-0.0109,-0.011,-0.011,-0.0111,0,0,0,0,0,0,0,-0.0023,-0.0026,-0.005,-0.0046,-0.0048,-0.0059,-0.0061,-0.0071,-0.0082,-0.0072,-0.0073,-0.0077,-0.0094,-0.0101,-0.0102,-0.0117,-0.0109,-0.011,-0.0111,-0.0111,-0.0123,-0.0123,0,0,0,0,0,0,-0.0018,-0.0025,-0.0049,-0.0051,-0.0036,-0.0059,-0.0062,-0.0065,-0.0082,-0.0085,-0.0077,-0.0078,-0.0099,-0.0101,-0.0103,-0.0089,-0.011,-0.0111,-0.0112,-0.0123,-0.0123,-0.0123,0,0,0,0,0,0,-0.0018,-0.002,-0.0047,-0.0039,-0.0043,-0.006,-0.0063,-0.0066,-0.0073,-0.0086,-0.0089,-0.0081,-0.0099,-0.0102,-0.011,-0.0091,-0.0112,-0.0113,-0.0124,-0.0123,-0.0123,-0.0076,0,0,0,0,0,0,-0.0017,-0.002,-0.0022,-0.0038,-0.0043,-0.0059,-0.0063,-0.0067,-0.0076,-0.0077,-0.009,-0.0092,-0.0099,-0.0108,-0.0111,-0.0092,-0.0113,-0.0124,-0.0124,-0.0123,-0.0078,-0.0074,-0.0071,0,0,0,0,0,-0.0015,-0.0015,-0.0021,-0.0025,-0.0045,-0.0059,-0.0063,-0.0075,-0.0076,-0.008,-0.0087,-0.0092,-0.0107,-0.0109,-0.0112,-0.0093,-0.0124,-0.0124,-0.0123,-0.0079,-0.0075,-0.0071,0,0,0,0,0,0,0.0002,-0.0017,-0.0024,-0.0028,-0.0044,-0.0062,-0.0066,-0.0074,-0.0084,-0.0084,-0.0094,-0.0096,-0.0097,-0.0106,-0.0108,-0.0097,-0.0114,-0.0114,-0.008,-0.0076,-0.0073,-0.0009,-0.0114,0,0,0,0,0,0.0004,-0.0003,-0.0022,-0.0026,-0.0033,-0.005,-0.0058,-0.0066,-0.0077,-0.0082,-0.0092,-0.0097,-0.0097,-0.0095,-0.0106,-0.01,-0.0092,-0.009,-0.0086,-0.0083,-0.0034,-0.0013,-0.0002,-0.0121,-0.0121,-0.0121,0,0,0.0011,-0.0002,-0.0005,-0.0023,-0.0036,-0.0033,-0.0054,-0.0065,-0.0053,-0.0082,-0.0073,-0.0092,-0.0096,-0.009,-0.0089,-0.0092,-0.0055,-0.0082,-0.0079,-0.003,-0.0011,0.0001,0.0012,-0.0121,-0.0121,-0.0121,0,0,0.0026,0.0008,0.001,-0.0001,-0.002,-0.0026,-0.0028,-0.0048,-0.0048,-0.0054,-0.006,-0.0054,-0.008,-0.0055,-0.005,-0.003,-0.0044,-0.0054,0.0028,0.0046,0.0057,0.0067,0.0053,0.0061,-0.0043,-0.0043,-0.0043,0,0.0035,0.0051,0.0009,0.001,0.003,-0.0018,0.0013,-0.0009,-0.0027,0.0005,-0.0047,-0.0023,-0.0047,0.0019,0.0018,-0.0016,-0.0024,0.0011,0.0054,0.0064,0.0074,0.0057,0.0066,-0.0041,-0.0041,-0.0041,-0.0041,0,0.0058,0.0074,0.0076,0.0075,0.0074,0.0092,0.0069,0.0071,0.0058,0.0057,0.0093,0.0057,0.0093,0.0065,0.0044,0.0112,0.0074,0.0048,0.005,0.0089,0.0067,0.0076,-0.0037,-0.0038,-0.0039,-0.0039,0,0,0.0103,0.0101,0.0107,0.0151,0.0129,0.015,0.0161,0.0202,0.025,0.0201,0.0278,0.0253,0.0242,0.025,0.022,0.023,0.0252,0.0172,0.0171,0.0171,0.0269,0.022,0.0224,0.0226,0.0228,0.023,0.0212,0,0.016,0.0214,0.0188,0.0267,0.0318,0.0294,0.032,0.0336,0.0333,0.0371,0.0354,0.0379,0.0306,0.0319,0.0324,0.0274,0.0283,0.0259,0.0222,0.0222,0.0185,0.0236,0.0202,0.0183,0.022,0.0222,0.0223,0,0.0226,0.0265,0.0356,0.0433,0.0451,0.0474,0.0568,0.0577,0.0594,0.0589,0.0611,0.0568,0.0589,0.0497,0.0474,0.0455,0.0387,0.0332,0.0329,0.0292,0.0192,0.0157,0.0197,0.0072,0.0236,0.0235,0.0234,0,0.0359,0.0408,0.0509,0.0527,0.0569,0.0624,0.0644,0.0667,0.0693,0.0729,0.0738,0.0751,0.0734,0.0682,0.0541,0.0515,0.0487,0.0433,0.0334,0.0327,0.0303,0.0291,0.0243,0.0443,0.0443,0.0443,0.0444,0,0.0483,0.0567,0.058,0.0643,0.0744,0.0743,0.0838,0.0849,0.0873,0.0909,0.0859,0.0877,0.0775,0.0718,0.0609,0.0496,0.0541,0.0385,0.0343,0.031,0.0299,0.0192,0.0127,0.0443,0.0443,0.0443,0.0443,0,0.062,0.0638,0.0738,0.0794,0.0811,0.0878,0.0906,0.0957,0.0973,0.1015,0.1021,0.0977,0.0904,0.0783,0.068,0.057,0.0396,0.0419,0.0369,0.0323,0.0123,0.0062,0.0008,-0.0046,0.0335,0.0334,0.0333,0,0.0696,0.0765,0.0821,0.0845,0.0867,0.0939,0.0967,0.0999,0.1036,0.1065,0.1088,0.1038,0.1005,0.0833,0.0634,0.0467,0.0356,0.0325,0.029,0.0144,0.0044,-0.0005,-0.0049,0.025,0.0249,0.0247,0.0246,0,0.0805,0.0812,0.086,0.0909,0.0949,0.0999,0.105,0.1097,0.1129,0.1166,0.1193,0.1182,0.1004,0.0827,0.059,0.0455,0.0231,0.0296,0.0175,0.0024,-0.0058,-0.0142,0.0198,0.0236,0.0237,0.0238,0.0238,0.0239,0.083,0.086,0.0889,0.0939,0.0982,0.1042,0.1089,0.1144,0.1211,0.1275,0.1266,0.1269,0.1012,0.0686,0.0489,0.0109,0.0137,0.0007,-0.0045,-0.0072,-0.0141,0.0168,0.0137,0.0138,0.0138,0.0138,0.0139,0,0.0821,0.0855,0.0905,0.0956,0.1002,0.1033,0.1119,0.1166,0.1242,0.1325,0.1359,0.1234,0.0906,0.0578,0.0076,-0.0177,-0.0269,-0.031,-0.0382,-0.0401,-0.0102,-0.0124,-0.0249,-0.0249,-0.0248,-0.0248,-0.0248,-0.0248,0.0809,0.0842,0.0878,0.0947,0.099,0.1058,0.1109,0.1189,0.1269,0.1354,0.1377,0.1391,0.1136,0.0249,-0.0357,-0.0497,-0.0646,-0.0696,-0.075,-0.0562,-0.0536,-0.0512,-0.0548,-0.0759,-0.076,-0.1037,-0.104,-0.1042]}],[{"header":{"parameterUnit":"m.s-1","parameterCategory":2,"la1":30.2991,"la2":30.254,"lo1":-89.0895,"lo2":-89.0444,"dy":0.0017,"dx":0.0017,"nx":28,"ny":28,"refTime":"2024-04-17T03:00:00:Z","depth":"2","parameterNumber":2,"parameterNumberName":"U-component_of_CURRENTS"},"data":[0,0,0,0,0,0,0,0,0,0,0,0,0,0,0,0,0,0,0,0,0,0,0,0,0,0,0,0,0,0,0,0,0,0,0,0,0,0,0,0,0,0,0,0,0,0,0,0,0,0,0,0,0,0,0,0,0,0,0.1102,0.1102,0,0.11,0.1099,0.1099,0.1101,0.1101,0.1101,0.1101,0.1095,0.1095,0.1095,0,0,0,0,0,0,0,0,0,0,0,0,0,0.1088,0.1088,0.1102,0.1102,0.1102,0.11,0.1099,0.1099,0.1101,0.1101,0.1101,0.1102,0.1095,0.1095,0.1095,0,0,0,0,0,0,0,0,0,0,0,0,0,0.1089,0.1089,0.1102,0.1104,0.1104,0.11,0.1099,0.1099,0.1101,0.1101,0.1101,0.1102,0.1096,0.1095,0.1095,0.1085,0,0,0.1093,0.1093,0,0,0,0,0,0,0,0,0.1089,0.109,0.1104,0.1104,0.1104,0.1102,0.1092,0.1095,0.1101,0.11,0.1101,0.1102,0.1098,0.1097,0.1094,0.1085,0.1084,0.1093,0.1093,0.1092,0.1092,0,0,0,0,0,0,0,0.1089,0.109,0.11,0.1104,0.1104,0.1098,0.1098,0.1093,0.1096,0.11,0.1101,0.1103,0.1098,0.1095,0.1094,0.1084,0.1093,0.1092,0.1092,0.1092,0.1082,0.1082,0,0,0,0,0,0,0.1093,0.109,0.11,0.11,0.1099,0.1098,0.1099,0.1101,0.1096,0.1096,0.1103,0.1103,0.1095,0.1095,0.1094,0.111,0.1092,0.1092,0.1091,0.1082,0.1082,0.1082,0,0,0,0,0,0,0.1093,0.1094,0.11,0.1096,0.1096,0.1098,0.1101,0.1101,0.1101,0.1098,0.1098,0.1104,0.1096,0.1094,0.109,0.1109,0.1092,0.1091,0.1082,0.1082,0.1082,0.1124,0,0,0,0,0,0,0.1093,0.1094,0.1096,0.1096,0.1097,0.1099,0.1101,0.1101,0.1103,0.1103,0.1099,0.1099,0.1096,0.109,0.1089,0.1108,0.1091,0.1082,0.1082,0.1082,0.1123,0.1126,0.1128,0,0,0,0,0,0.1092,0.1091,0.1097,0.1098,0.11,0.11,0.1099,0.11,0.1102,0.1102,0.1099,0.1099,0.1091,0.109,0.1088,0.1107,0.1082,0.1082,0.1082,0.1122,0.1125,0.1128,0,0,0,0,0,0,0.108,0.1092,0.1097,0.1099,0.1102,0.1101,0.11,0.1102,0.1098,0.11,0.1096,0.1095,0.11,0.1091,0.109,0.1103,0.1088,0.1088,0.1118,0.1122,0.1124,0.1195,0.109,0,0,0,0,0,0.1081,0.1086,0.1094,0.1094,0.1098,0.11,0.11,0.1102,0.11,0.1099,0.1097,0.1094,0.1098,0.1099,0.1095,0.1098,0.1142,0.1109,0.1112,0.1114,0.1169,0.123,0.1245,0.1083,0.1083,0.1083,0,0,0.1076,0.1083,0.1085,0.1093,0.1095,0.1107,0.11,0.1102,0.1121,0.1099,0.1114,0.1102,0.1099,0.1107,0.1109,0.1103,0.1179,0.1115,0.1117,0.1172,0.1232,0.1248,0.1263,0.1083,0.1083,0.1083,0,0,0.107,0.1076,0.1082,0.109,0.11,0.1107,0.111,0.1112,0.1123,0.1128,0.1126,0.1135,0.1117,0.114,0.1145,0.1161,0.1189,0.114,0.1218,0.1274,0.129,0.1304,0.137,0.139,0.1144,0.1144,0.1144,0,0.1064,0.1089,0.1082,0.1094,0.1122,0.1111,0.1142,0.1139,0.1141,0.118,0.1137,0.1175,0.1148,0.1214,0.121,0.1175,0.1214,0.1205,0.1283,0.1298,0.1312,0.1377,0.1398,0.1146,0.1146,0.1146,0.1146,0,0.1071,0.1099,0.1103,0.1129,0.1145,0.1169,0.1181,0.1197,0.1204,0.1223,0.1277,0.1249,0.1289,0.1261,0.1237,0.1324,0.1322,0.1278,0.1284,0.1331,0.1395,0.1417,0.1149,0.1149,0.1148,0.1148,0,0,0.107,0.1106,0.1115,0.1164,0.1184,0.1211,0.1242,0.1307,0.136,0.1352,0.1436,0.1426,0.1432,0.144,0.1412,0.1452,0.1546,0.141,0.1412,0.1496,0.1693,0.1647,0.1665,0.1513,0.1517,0.152,0.1695,0,0.11,0.1158,0.1162,0.124,0.1295,0.1312,0.135,0.1398,0.1425,0.1484,0.1504,0.1544,0.1491,0.1502,0.1543,0.1538,0.1607,0.1505,0.162,0.1625,0.1594,0.1691,0.1487,0.1622,0.1717,0.172,0.1723,0,0.1144,0.1187,0.1266,0.1365,0.1387,0.1412,0.1527,0.1553,0.1622,0.1643,0.1707,0.1704,0.1775,0.1692,0.1799,0.1735,0.1745,0.1742,0.1747,0.172,0.1621,0.159,0.1658,0.1759,0.1756,0.1754,0.1751,0,0.1224,0.129,0.1373,0.1399,0.1467,0.1516,0.155,0.1618,0.1657,0.1748,0.1781,0.1873,0.1893,0.1945,0.1921,0.1875,0.2025,0.195,0.1948,0.1944,0.1808,0.1786,0.2073,0.2073,0.2072,0.2072,0.2071,0,0.1309,0.1384,0.1413,0.1462,0.1549,0.1583,0.1666,0.1711,0.177,0.182,0.1864,0.1917,0.1953,0.2012,0.2007,0.2055,0.2105,0.2023,0.2006,0.1812,0.1789,0.1928,0.1908,0.2078,0.2077,0.2076,0.2075,0,0.1395,0.1423,0.1509,0.157,0.1587,0.1645,0.1687,0.1731,0.1799,0.1862,0.189,0.1976,0.2068,0.211,0.2185,0.2151,0.2198,0.2201,0.1978,0.1932,0.2069,0.2049,0.226,0.226,0.2261,0.2261,0.2261,0,0.1449,0.1499,0.1551,0.1566,0.1586,0.1648,0.1666,0.1732,0.1767,0.1883,0.1913,0.2036,0.2097,0.2221,0.2182,0.2235,0.2262,0.2084,0.1965,0.2137,0.2098,0.2078,0.2059,0.1798,0.1795,0.1792,0.179,0,0.1515,0.1516,0.1541,0.1563,0.1586,0.1626,0.1668,0.1697,0.1768,0.1836,0.1928,0.1996,0.2095,0.2052,0.2109,0.2094,0.2058,0.2028,0.2291,0.177,0.1712,0.167,0.1664,0.1763,0.1766,0.1768,0.1769,0.177,0.1511,0.1522,0.1514,0.1534,0.155,0.1579,0.1595,0.1647,0.1702,0.1778,0.1865,0.1889,0.1897,0.1878,0.1854,0.1823,0.1956,0.1865,0.187,0.1879,0.1782,0.1726,0.1763,0.1766,0.1768,0.177,0.1772,0,0.149,0.149,0.1488,0.1492,0.1474,0.1521,0.1565,0.1563,0.1607,0.1667,0.1738,0.1542,0.1556,0.1587,0.1483,0.1502,0.1436,0.1469,0.1358,0.1386,0.1411,0.1284,0.1137,0.1135,0.1134,0.1132,0,0,0.1469,0.1445,0.1436,0.1396,0.1404,0.1396,0.1415,0.1438,0.1456,0.1407,0.1374,0.1493,0.1505,0.1271,0.1269,0.1195,0.1275,0.1148,0.1655,0.1549,0.1571,0.1638,0.1477,0,0,0,0,0]},{"header":{"parameterUnit":"m.s-1","parameterCategory":2,"la1":30.2991,"la2":30.254,"lo1":-89.0895,"lo2":-89.0444,"dy":0.0017,"dx":0.0017,"nx":28,"ny":28,"refTime":"2024-04-17T03:00:00:Z","depth":"2","parameterNumber":3,"parameterNumberName":"V-component_of_CURRENTS"},"data":[0,0,0,0,0,0,0,0,0,0,0,0,0,0,0,0,0,0,0,0,0,0,0,0,0,0,0,0,0,0,0,0,0,0,0,0,0,0,0,0,0,0,0,0,0,0,0,0,0,0,0,0,0,0,0,0,0,0,-0.0165,-0.0165,0,-0.0196,-0.0197,-0.0197,-0.0208,-0.0208,-0.0208,-0.0208,-0.0226,-0.0227,-0.0227,0,0,0,0,0,0,0,0,0,0,0,0,0,-0.0133,-0.0134,-0.0165,-0.0165,-0.0165,-0.0196,-0.0197,-0.0197,-0.0208,-0.0208,-0.0208,-0.0208,-0.0226,-0.0227,-0.0227,0,0,0,0,0,0,0,0,0,0,0,0,0,-0.0154,-0.0134,-0.0165,-0.0175,-0.0176,-0.0196,-0.0197,-0.0197,-0.0209,-0.0208,-0.0208,-0.0208,-0.0226,-0.0227,-0.0228,-0.0237,0,0,-0.023,-0.0231,0,0,0,0,0,0,0,0,-0.0153,-0.0155,-0.0173,-0.0174,-0.0175,-0.0198,-0.0192,-0.021,-0.0209,-0.0196,-0.0208,-0.0208,-0.0216,-0.0217,-0.0224,-0.0238,-0.0238,-0.023,-0.0231,-0.0231,-0.0232,0,0,0,0,0,0,0,-0.0152,-0.0154,-0.0177,-0.0173,-0.0175,-0.0184,-0.0187,-0.0196,-0.0206,-0.0197,-0.0198,-0.0202,-0.0216,-0.0223,-0.0225,-0.0239,-0.023,-0.0231,-0.0232,-0.0232,-0.0238,-0.0237,0,0,0,0,0,0,-0.0147,-0.0153,-0.0176,-0.0178,-0.0163,-0.0185,-0.0188,-0.0191,-0.0207,-0.0209,-0.0202,-0.0202,-0.0222,-0.0223,-0.0225,-0.0214,-0.0231,-0.0232,-0.0233,-0.0238,-0.0238,-0.0237,0,0,0,0,0,0,-0.0146,-0.0149,-0.0175,-0.0166,-0.017,-0.0186,-0.0189,-0.0192,-0.0198,-0.021,-0.0212,-0.0205,-0.0222,-0.0224,-0.0229,-0.0215,-0.0232,-0.0233,-0.0239,-0.0238,-0.0237,-0.0206,0,0,0,0,0,0,-0.0145,-0.0148,-0.015,-0.0166,-0.0171,-0.0186,-0.019,-0.0193,-0.0201,-0.0201,-0.0214,-0.0215,-0.0222,-0.0228,-0.023,-0.0217,-0.0234,-0.0239,-0.0238,-0.0238,-0.0207,-0.0204,-0.0202,0,0,0,0,0,-0.0144,-0.0142,-0.015,-0.0153,-0.0172,-0.0186,-0.0189,-0.02,-0.0201,-0.0204,-0.0209,-0.0215,-0.0225,-0.0229,-0.0231,-0.0218,-0.0239,-0.0239,-0.0238,-0.0209,-0.0205,-0.0202,0,0,0,0,0,0,-0.0126,-0.0144,-0.0152,-0.0156,-0.0171,-0.0188,-0.0191,-0.0199,-0.0207,-0.0206,-0.0215,-0.0217,-0.0217,-0.0224,-0.0228,-0.0217,-0.0231,-0.023,-0.0208,-0.0204,-0.0201,-0.0166,-0.0235,0,0,0,0,0,-0.0124,-0.013,-0.0149,-0.0153,-0.0159,-0.0176,-0.0183,-0.0191,-0.02,-0.0204,-0.0213,-0.0217,-0.0216,-0.0215,-0.0223,-0.0219,-0.023,-0.0211,-0.0208,-0.0205,-0.0179,-0.0205,-0.0202,-0.0234,-0.0234,-0.0234,0,0,-0.0117,-0.0129,-0.0131,-0.015,-0.0161,-0.0163,-0.018,-0.0189,-0.0183,-0.0204,-0.0201,-0.0212,-0.0215,-0.021,-0.0209,-0.0212,-0.0204,-0.0204,-0.0202,-0.0176,-0.0204,-0.02,-0.0198,-0.0234,-0.0234,-0.0234,0,0,-0.0103,-0.0118,-0.0118,-0.0129,-0.0146,-0.0156,-0.0157,-0.0176,-0.0178,-0.0183,-0.0188,-0.0187,-0.02,-0.0188,-0.0185,-0.017,-0.0193,-0.0178,-0.0129,-0.0155,-0.0153,-0.0151,-0.0167,-0.0166,-0.0171,-0.0171,-0.0171,0,-0.0093,-0.0089,-0.0119,-0.0121,-0.0112,-0.0149,-0.0132,-0.0149,-0.0165,-0.0146,-0.0177,-0.0162,-0.0182,-0.0141,-0.0141,-0.0161,-0.018,-0.0143,-0.0151,-0.0149,-0.0148,-0.0165,-0.0165,-0.0169,-0.0169,-0.017,-0.017,0,-0.0078,-0.0072,-0.0071,-0.0079,-0.0082,-0.0074,-0.0095,-0.0095,-0.0105,-0.0109,-0.0085,-0.0112,-0.0087,-0.0107,-0.0123,-0.0103,-0.0123,-0.0152,-0.0159,-0.0142,-0.0162,-0.0162,-0.0167,-0.0168,-0.0168,-0.0168,0,0,-0.0048,-0.0055,-0.0052,-0.0031,-0.0048,-0.0041,-0.0034,-0.0014,0.0014,-0.0016,0.0022,0.0012,0.0009,0.0013,-0.0006,-0.0035,-0.0061,-0.0086,-0.0088,-0.0099,-0.0116,-0.0198,-0.0207,-0.0102,-0.0102,-0.0102,-0.0137,0,-0.0015,0.0013,-0.0002,0.0038,0.0062,0.0046,0.0064,0.0071,0.0066,0.0079,0.0067,0.0078,0.0051,0.0056,0.0032,-0.0048,-0.0059,-0.0048,-0.0132,-0.0133,-0.0207,-0.0209,-0.0141,-0.0173,-0.0138,-0.0138,-0.0138,0,0.002,0.004,0.0089,0.0132,0.0141,0.0157,0.021,0.0215,0.0218,0.0212,0.0231,0.0201,0.0189,0.0132,0.0063,0.0066,-0.0001,-0.007,-0.0074,-0.0155,-0.0216,-0.0184,-0.0176,-0.0139,-0.0139,-0.0139,-0.0139,0,0.0078,0.0117,0.017,0.0179,0.0202,0.0241,0.0259,0.0275,0.0283,0.0295,0.0291,0.0289,0.0262,0.0188,0.0064,0.0057,-0.0051,-0.0081,-0.0197,-0.0204,-0.016,-0.0164,-0.0115,-0.0115,-0.0114,-0.0114,-0.0114,0,0.0133,0.018,0.021,0.0227,0.0299,0.0309,0.0363,0.0376,0.0383,0.0398,0.0371,0.0372,0.0264,0.0189,0.0087,-0.006,-0.002,-0.0178,-0.0219,-0.0151,-0.0153,-0.0132,-0.0134,-0.0116,-0.0115,-0.0115,-0.0115,0,0.0178,0.0201,0.0251,0.0294,0.0316,0.0364,0.0391,0.0417,0.0436,0.0446,0.0446,0.0411,0.03,0.0184,0.0038,-0.0042,-0.0174,-0.0226,-0.0139,-0.017,-0.0307,-0.0306,-0.0355,-0.0358,-0.0361,-0.0363,-0.0365,0,0.0191,0.0222,0.0269,0.03,0.0323,0.0384,0.0405,0.043,0.0447,0.0473,0.0473,0.0393,0.0331,0.0096,-0.0058,-0.0236,-0.0253,-0.0295,-0.0302,-0.0297,-0.0331,-0.0326,-0.0322,-0.0222,-0.0222,-0.0223,-0.0223,0,0.0186,0.0205,0.023,0.0298,0.0338,0.0382,0.0431,0.044,0.0472,0.0487,0.0506,0.0467,0.0281,0.0118,-0.0134,-0.0241,-0.027,-0.0317,-0.0318,-0.0197,-0.0182,-0.0213,-0.0211,-0.0228,-0.0227,-0.0227,-0.0227,-0.0226,0.0161,0.0168,0.0196,0.0284,0.0336,0.0388,0.0423,0.0463,0.0485,0.0522,0.0514,0.049,0.0334,0.0006,-0.017,-0.0336,-0.035,-0.0386,-0.0379,-0.0373,-0.0376,-0.037,-0.045,-0.045,-0.0451,-0.0452,-0.0452,0,0.0133,0.016,0.0184,0.0271,0.0349,0.0396,0.0444,0.0453,0.0497,0.0539,0.0564,0.0422,0.0245,0.0058,-0.0172,-0.0348,-0.0305,-0.0412,-0.0291,-0.0287,-0.0283,-0.0277,-0.0327,-0.0327,-0.0327,-0.0327,0,0,0.0114,0.0125,0.0135,0.0254,0.0358,0.0442,0.0482,0.0475,0.0508,0.0513,0.0552,0.0522,0.032,0.0164,-0.0054,-0.0176,-0.0193,-0.0207,-0.0286,-0.0113,-0.0106,-0.0248,-0.0233,0,0,0,0,0]}],[{"header":{"parameterUnit":"m.s-1","parameterCategory":2,"la1":30.2991,"la2":30.254,"lo1":-89.0895,"lo2":-89.0444,"dy":0.0017,"dx":0.0017,"nx":28,"ny":28,"refTime":"2024-04-17T03:00:00:Z","depth":"4","parameterNumber":2,"parameterNumberName":"U-component_of_CURRENTS"},"data":[0,0,0,0,0,0,0,0,0,0,0,0,0,0,0,0,0,0,0,0,0,0,0,0,0,0,0,0,0,0,0,0,0,0,0,0,0,0,0,0,0,0,0,0,0,0,0,0,0,0,0,0,0,0,0,0,0,0,0.065,0.0651,0,0.0657,0.0657,0.0658,0.0693,0.0694,0.0695,0.0696,0.077,0.0771,0.0773,0,0,0,0,0,0,0,0,0,0,0,0,0,0.0624,0.0625,0.065,0.0651,0.0651,0.0657,0.0657,0.0658,0.0693,0.0694,0.0695,0.0696,0.077,0.0771,0.0773,0,0,0,0,0,0,0,0,0,0,0,0,0,0.0633,0.0625,0.065,0.067,0.0672,0.0657,0.0657,0.0658,0.0693,0.0694,0.0696,0.0697,0.077,0.0771,0.0773,0.0756,0,0,0.0778,0.0779,0,0,0,0,0,0,0,0,0.0633,0.0634,0.0667,0.0668,0.0671,0.0677,0.0676,0.0694,0.0693,0.0684,0.0696,0.0698,0.0745,0.0748,0.0745,0.0759,0.0763,0.0778,0.0779,0.078,0.078,0,0,0,0,0,0,0,0.0632,0.0634,0.0653,0.0667,0.0669,0.0663,0.0666,0.0679,0.0707,0.0685,0.0688,0.0689,0.0746,0.0743,0.0747,0.0764,0.0778,0.078,0.0781,0.0781,0.0862,0.0863,0,0,0,0,0,0,0.0634,0.0633,0.0652,0.0653,0.0655,0.0663,0.0666,0.0673,0.0706,0.0712,0.0688,0.0691,0.0739,0.0745,0.075,0.0838,0.078,0.0782,0.0782,0.086,0.0862,0.0863,0,0,0,0,0,0,0.0633,0.0635,0.0652,0.0644,0.0645,0.0662,0.0669,0.0672,0.0692,0.0707,0.0715,0.0708,0.0741,0.0748,0.0787,0.0837,0.0782,0.0784,0.0859,0.0861,0.0862,0.0946,0,0,0,0,0,0,0.0632,0.0635,0.0643,0.0644,0.0646,0.0659,0.0668,0.0671,0.069,0.0694,0.0726,0.0733,0.0742,0.0785,0.0789,0.0839,0.0785,0.0858,0.086,0.0862,0.0942,0.0951,0.0958,0,0,0,0,0,0.0631,0.0637,0.0643,0.0645,0.0655,0.0659,0.066,0.0676,0.069,0.0699,0.0728,0.0734,0.0801,0.0787,0.0791,0.0843,0.0857,0.0859,0.0862,0.0939,0.0949,0.0958,0,0,0,0,0,0,0.0631,0.0641,0.0648,0.0657,0.0665,0.0666,0.0676,0.0685,0.0711,0.0726,0.0743,0.0752,0.08,0.0803,0.0786,0.0869,0.0832,0.0835,0.0889,0.0898,0.0906,0.0917,0.0787,0,0,0,0,0,0.0632,0.0641,0.0648,0.0657,0.0664,0.0673,0.0679,0.069,0.0709,0.0722,0.0747,0.0777,0.0808,0.0839,0.085,0.0899,0.0882,0.0935,0.0943,0.095,0.096,0.0949,0.0957,0.0871,0.0871,0.0871,0,0,0.0635,0.0641,0.0647,0.0657,0.0667,0.0682,0.0681,0.0697,0.0723,0.0726,0.0777,0.0796,0.082,0.0873,0.0898,0.0892,0.0969,0.0953,0.0959,0.0965,0.0952,0.0961,0.0968,0.0873,0.0873,0.0872,0,0,0.0644,0.0652,0.0666,0.0675,0.0691,0.0695,0.0706,0.0723,0.0748,0.079,0.0803,0.0857,0.0896,0.0935,0.0958,0.1015,0.0995,0.1021,0.1094,0.1084,0.1091,0.1097,0.1104,0.111,0.1044,0.1045,0.1045,0,0.0648,0.0663,0.067,0.0688,0.0695,0.0707,0.0723,0.0749,0.078,0.0801,0.0819,0.09,0.0931,0.1006,0.1045,0.1038,0.1024,0.1061,0.1095,0.11,0.1105,0.1111,0.1116,0.1049,0.1048,0.1048,0.1048,0,0.0667,0.0683,0.0693,0.0719,0.073,0.0742,0.0772,0.0797,0.0831,0.0857,0.0931,0.0983,0.1038,0.1067,0.1089,0.1151,0.1128,0.109,0.1072,0.1119,0.1122,0.1126,0.1055,0.1054,0.1052,0.1051,0,0,0.0657,0.0698,0.0702,0.0716,0.0743,0.0751,0.0796,0.0829,0.0858,0.0929,0.0988,0.1085,0.1122,0.1151,0.1189,0.1216,0.1264,0.1189,0.1186,0.12,0.1252,0.1163,0.1159,0.1223,0.1224,0.1225,0.1248,0,0.0666,0.0694,0.0717,0.0747,0.0756,0.0782,0.0822,0.0859,0.0895,0.0956,0.1046,0.1121,0.1153,0.1211,0.1242,0.1252,0.1275,0.1262,0.1201,0.12,0.1118,0.116,0.1227,0.1251,0.1251,0.1252,0.1252,0,0.0671,0.0684,0.0709,0.075,0.0761,0.0795,0.083,0.087,0.0948,0.0991,0.1079,0.114,0.1257,0.1254,0.1311,0.1298,0.129,0.1288,0.1287,0.1176,0.1118,0.1189,0.1259,0.1259,0.1258,0.1258,0.1257,0,0.063,0.0678,0.0692,0.0703,0.0755,0.0788,0.083,0.0883,0.0924,0.103,0.1088,0.1185,0.1279,0.1281,0.1333,0.1315,0.1354,0.1313,0.1223,0.1217,0.1253,0.1246,0.1318,0.1318,0.1318,0.1318,0.1318,0,0.0609,0.0621,0.0685,0.069,0.0725,0.078,0.0823,0.0874,0.0963,0.1011,0.1129,0.1181,0.1286,0.1335,0.1334,0.1309,0.1354,0.1246,0.1215,0.129,0.1287,0.1257,0.125,0.1318,0.1318,0.1318,0.1318,0,0.0553,0.0591,0.0608,0.0676,0.0705,0.0734,0.0831,0.086,0.0963,0.1033,0.1094,0.1209,0.1248,0.1327,0.1339,0.1314,0.129,0.1259,0.1371,0.1345,0.1159,0.1156,0.115,0.1147,0.1145,0.1143,0.1141,0,0.0525,0.0524,0.0586,0.0609,0.0649,0.0706,0.0745,0.0847,0.0879,0.1011,0.1046,0.1149,0.1205,0.118,0.1232,0.1236,0.1212,0.1225,0.1171,0.117,0.1142,0.1142,0.1143,0.1137,0.1136,0.1136,0.1135,0,0.0456,0.0481,0.0496,0.0551,0.0599,0.0629,0.0705,0.072,0.0828,0.0945,0.0976,0.1023,0.106,0.1081,0.1127,0.1109,0.1234,0.1198,0.1202,0.1151,0.1154,0.1128,0.1131,0.1126,0.1127,0.1128,0.1129,0,0.0404,0.0404,0.0445,0.0481,0.0535,0.0551,0.0585,0.0637,0.0685,0.0847,0.0824,0.0921,0.1008,0.101,0.1022,0.1041,0.1004,0.0989,0.1003,0.1013,0.0961,0.0944,0.0833,0,0,0,0,0,0.0354,0.0358,0.0386,0.0416,0.0464,0.0506,0.0563,0.0598,0.0697,0.0695,0.0767,0.0787,0.0828,0.0858,0.0845,0.0939,0.1003,0.0921,0.099,0.1078,0.1088,0.104,0,0,0,0,0,0,0.0328,0.0348,0.0358,0.0353,0.0377,0.0419,0.045,0.0509,0.0508,0.062,0.0629,0.0749,0.0779,0.0829,0.0833,0.085,0.0878,0.0986,0.0984,0.1072,0.1081,0.1089,0.1044,0,0,0,0,0]},{"header":{"parameterUnit":"m.s-1","parameterCategory":2,"la1":30.2991,"la2":30.254,"lo1":-89.0895,"lo2":-89.0444,"dy":0.0017,"dx":0.0017,"nx":28,"ny":28,"refTime":"2024-04-17T03:00:00:Z","depth":"4","parameterNumber":3,"parameterNumberName":"V-component_of_CURRENTS"},"data":[0,0,0,0,0,0,0,0,0,0,0,0,0,0,0,0,0,0,0,0,0,0,0,0,0,0,0,0,0,0,0,0,0,0,0,0,0,0,0,0,0,0,0,0,0,0,0,0,0,0,0,0,0,0,0,0,0,0,-0.0037,-0.0037,0,-0.002,-0.002,-0.0019,-0.0023,-0.0023,-0.0024,-0.0024,-0.0002,-0.0,0.0001,0,0,0,0,0,0,0,0,0,0,0,0,0,-0.004,-0.004,-0.0037,-0.0037,-0.0037,-0.002,-0.002,-0.0019,-0.0023,-0.0023,-0.0024,-0.0025,-0.0002,-0.0001,0.0001,0,0,0,0,0,0,0,0,0,0,0,0,0,-0.003,-0.004,-0.0037,-0.0038,-0.0038,-0.002,-0.002,-0.0019,-0.0023,-0.0023,-0.0024,-0.0025,-0.0002,-0.0001,0.0001,0.0026,0,0,0.0006,0.0006,0,0,0,0,0,0,0,0,-0.0031,-0.003,-0.0038,-0.0038,-0.0038,-0.0026,-0.0012,-0.0004,-0.0023,-0.0026,-0.0024,-0.0025,-0.001,-0.0008,-0.0,0.0027,0.0028,0.0006,0.0007,0.0008,0.0008,0,0,0,0,0,0,0,-0.0032,-0.0031,-0.0028,-0.0038,-0.0038,-0.0029,-0.0028,-0.0011,-0.0012,-0.0026,-0.0027,-0.0028,-0.001,-0.0002,0.0,0.0028,0.0006,0.0007,0.0008,0.0009,0.0058,0.0058,0,0,0,0,0,0,-0.0039,-0.0031,-0.0029,-0.0028,-0.0039,-0.0028,-0.0028,-0.0027,-0.0013,-0.0012,-0.0027,-0.0028,-0.0004,-0.0001,0.0001,-0.0016,0.0008,0.0009,0.001,0.0057,0.0058,0.0058,0,0,0,0,0,0,-0.0039,-0.0038,-0.0029,-0.0031,-0.0029,-0.0028,-0.0027,-0.0027,-0.0024,-0.0014,-0.0013,-0.0027,-0.0005,-0.0001,0.0023,-0.0013,0.001,0.0011,0.0057,0.0058,0.0058,-0.0019,0,0,0,0,0,0,-0.0039,-0.0038,-0.0038,-0.0031,-0.003,-0.0014,-0.0027,-0.0026,-0.0025,-0.0026,-0.0013,-0.0011,-0.0005,0.0021,0.0025,-0.0011,0.0013,0.0057,0.0057,0.0058,-0.0017,-0.0021,-0.0025,0,0,0,0,0,-0.0039,-0.0033,-0.0038,-0.0038,-0.003,-0.0014,-0.0011,-0.0011,-0.0024,-0.0014,-0.0005,-0.0012,0.0026,0.0023,0.0027,-0.0009,0.0056,0.0057,0.0058,-0.0015,-0.0021,-0.0025,0,0,0,0,0,0,-0.0032,-0.0032,-0.0038,-0.0033,-0.0024,-0.0015,-0.0009,-0.0012,0.0003,-0.0002,0.0004,0.0007,0.0015,0.0028,0.0024,0.0012,0.0036,0.0038,-0.0021,-0.0026,-0.003,-0.0059,0.0014,0,0,0,0,0,-0.0032,-0.0027,-0.0025,-0.0019,-0.0018,-0.0015,-0.001,-0.001,0.0001,0.0005,0.0013,0.0021,0.0023,0.0019,0.0041,0.0037,0.004,0.0017,0.0013,0.0009,-0.0008,-0.0049,-0.006,0.0061,0.0061,0.0061,0,0,-0.0027,-0.0027,-0.0024,-0.0017,-0.0014,-0.0014,-0.0013,-0.0005,-0.0013,0.0007,0.0007,0.0019,0.0027,0.0023,0.0024,0.0023,-0.0011,0.001,0.0006,-0.0009,-0.0049,-0.0062,-0.0073,0.0061,0.0061,0.0061,0,0,-0.0021,-0.0017,-0.0018,-0.0013,-0.001,-0.0007,-0.0007,0.0001,-0.0004,0.0006,0.0006,-0.0005,0.002,-0.0004,-0.0011,-0.0021,-0.0019,-0.001,-0.0076,-0.0116,-0.0127,-0.0137,-0.011,-0.0117,-0.003,-0.003,-0.003,0,-0.0018,-0.0027,-0.0013,-0.0016,-0.0022,-0.0009,-0.0019,-0.0014,0.0001,-0.0014,0.0001,-0.0018,-0.0005,-0.006,-0.0065,-0.0039,-0.0032,-0.0067,-0.0126,-0.0137,-0.0146,-0.0116,-0.0123,-0.0033,-0.0033,-0.0033,-0.0032,0,-0.0023,-0.003,-0.0028,-0.0035,-0.003,-0.0032,-0.0032,-0.0029,-0.0035,-0.0044,-0.0078,-0.0074,-0.0101,-0.0101,-0.0087,-0.0157,-0.0117,-0.0118,-0.0127,-0.0164,-0.0127,-0.0133,-0.0039,-0.0037,-0.0036,-0.0035,0,0,-0.0032,-0.0033,-0.0037,-0.0048,-0.0048,-0.0043,-0.0059,-0.0079,-0.0088,-0.0109,-0.0151,-0.0179,-0.0198,-0.0206,-0.0211,-0.0251,-0.0292,-0.022,-0.022,-0.0213,-0.0334,-0.0294,-0.0296,-0.0314,-0.0316,-0.0318,-0.0269,0,-0.0052,-0.0061,-0.0063,-0.0079,-0.009,-0.0089,-0.0099,-0.0112,-0.011,-0.0129,-0.0195,-0.022,-0.0235,-0.0257,-0.0308,-0.0288,-0.0318,-0.0303,-0.0281,-0.0279,-0.0259,-0.0307,-0.0326,-0.0273,-0.0275,-0.0276,-0.0276,0,-0.0086,-0.0081,-0.0102,-0.0112,-0.0117,-0.0127,-0.0141,-0.0142,-0.0171,-0.0178,-0.025,-0.0272,-0.0362,-0.035,-0.041,-0.04,-0.0379,-0.0364,-0.0362,-0.0312,-0.0254,-0.0235,-0.0288,-0.0287,-0.0286,-0.0285,-0.0284,0,-0.0119,-0.0126,-0.0144,-0.0146,-0.0142,-0.0165,-0.0168,-0.0173,-0.0152,-0.0222,-0.0216,-0.0335,-0.0366,-0.0421,-0.0409,-0.0418,-0.0425,-0.0432,-0.0375,-0.0368,-0.0385,-0.0375,-0.0473,-0.0473,-0.0473,-0.0473,-0.0474,0,-0.0157,-0.0173,-0.0161,-0.0167,-0.0159,-0.0182,-0.0166,-0.0178,-0.0184,-0.014,-0.0256,-0.0239,-0.0386,-0.0401,-0.0415,-0.0409,-0.0444,-0.0398,-0.0377,-0.0407,-0.04,-0.0386,-0.0377,-0.0471,-0.0472,-0.0472,-0.0473,0,-0.0178,-0.0192,-0.0185,-0.0179,-0.0173,-0.0163,-0.0121,-0.0088,-0.0129,-0.0077,-0.0113,-0.0178,-0.0218,-0.0309,-0.0352,-0.0384,-0.0397,-0.0371,-0.0353,-0.0328,-0.0305,-0.03,-0.034,-0.0339,-0.0338,-0.0337,-0.0336,0,-0.0181,-0.0185,-0.0149,-0.0114,-0.0108,-0.0082,-0.0036,-0.0053,0.0002,0.0008,0.0044,-0.0025,-0.0065,-0.0112,-0.0216,-0.0297,-0.0297,-0.0316,-0.038,-0.0328,-0.0303,-0.0299,-0.0296,-0.0334,-0.0334,-0.0334,-0.0333,0,-0.0134,-0.0129,-0.0094,-0.0034,0.0008,0.0077,0.0122,0.0157,0.0164,0.0146,0.0175,0.0095,0.0069,-0.0051,-0.0129,-0.017,-0.034,-0.0305,-0.0309,-0.0369,-0.0321,-0.0297,-0.0294,-0.033,-0.033,-0.0331,-0.0331,0,-0.0059,-0.0018,0.0019,0.0068,0.0131,0.0184,0.0207,0.0259,0.0283,0.0266,0.0311,0.0218,0.0158,0.0029,-0.001,-0.0108,-0.0139,-0.0187,-0.0197,-0.0203,-0.0202,-0.0123,-0.0068,0,0,0,0,0,0.0025,0.0055,0.0122,0.0162,0.0217,0.0232,0.0303,0.0319,0.0335,0.0373,0.0323,0.03,0.0173,0.0124,0.0035,0.0004,-0.016,-0.0103,-0.0222,-0.0309,-0.0313,-0.0337,0,0,0,0,0,0,0.0083,0.014,0.0141,0.0218,0.0246,0.0307,0.0339,0.0355,0.0367,0.0366,0.0304,0.0273,0.0152,0.0213,0.0028,0.0002,-0.0085,-0.0162,-0.0164,-0.0306,-0.031,-0.0314,-0.034,0,0,0,0,0]}]]